Weather History for Columbia Owens, SC

Change the Weather History Date:

Sunday, July 14, 2013

  Actual Average Record
Temperature  
Mean Temperature 81 °F 83 °F  
Max Temperature 87 °F 93 °F 97 °F (2004)
Min Temperature 74 °F 72 °F 64 °F (1999)
Degree Days  
Heating Degree Days 0 0  
Month to date heating degree days 0 0  
Since 1 June heating degree days 0 0  
Since 1 July heating degree days 0 0  
Cooling Degree Days 16 18  
Month to date cooling degree days 216 245  
Year to date cooling degree days 983 1014  
Since 1 June cooling degree days 673 678  
Growing Degree Days 30 (Base 50)    
Moisture  
Dew Point 73 °F    
Average Humidity 87    
Maximum Humidity 94    
Minimum Humidity 59    
Precipitation  
Precipitation 0.14 in 0.17 in 0.71 in (2003)
Month to date precipitation 7.34 2.66  
Year to date precipitation 30.88 24.39  
Sea Level Pressure  
Sea Level Pressure 30.17 in    
Wind  
Wind Speed 3 mph (SE)    
Max Wind Speed 18 mph    
Max Gust Speed 29 mph    
Visibility 9 miles    
Events Rain    
T = Trace of Precipitation, MM = Missing Value Source: NWS Daily Summary

Daily Weather History Graph

Daily Weather History Graph

Search for Another Location

Airport:

Trip Planner

Search our weather history database for the weather conditions in past years. The results will help you decide how hot, cold, wet, or windy it might be!

Date:

Astronomy

Jul. 14, 2013 Rise Set
Actual Time 6:23 AM EDT 8:36 PM EDT
Civil Twilight 5:54 AM EDT 9:04 PM EDT
Nautical Twilight 5:20 AM EDT 9:39 PM EDT
Astronomical Twilight 4:42 AM EDT 10:16 PM EDT
Moon 12:19 PM EDT (7/14) No Moon Set
Length of Visible Light 15h 09m
Length of Day
14h 12m
Waxing Crescent, 35% of the Moon is Illuminated
Jul 14
Waxing Crescent
Jul 15
First Quarter
Jul 22
Full
Jul 29
Last Quarter
Aug 6
New

Hourly Weather History & Observations

Time (EDT) Temp. Heat Index Dew Point Humidity Pressure Visibility Wind Dir Wind Speed Gust Speed Precip Events Conditions
12:53 AM 75.0 °F - 73.9 °F 96% 30.10 in 10.0 mi Calm Calm - 0.01 in   Scattered Clouds
1:15 AM 75.2 °F - 73.4 °F 94% 30.10 in 10.0 mi Calm Calm - N/A   Mostly Cloudy
1:27 AM 75.2 °F - 73.4 °F 94% 30.11 in 10.0 mi Calm Calm - N/A   Scattered Clouds
1:53 AM 75.0 °F - 73.9 °F 96% 30.11 in 10.0 mi Calm Calm - N/A   Mostly Cloudy
2:14 AM 75.2 °F - 73.4 °F 94% 30.12 in 10.0 mi Calm Calm - N/A   Overcast
2:40 AM 75.2 °F - 73.4 °F 94% 30.12 in 10.0 mi Calm Calm - N/A   Overcast
2:53 AM 75.0 °F - 73.9 °F 96% 30.11 in 10.0 mi Calm Calm - N/A   Overcast
3:03 AM 75.2 °F - 73.4 °F 94% 30.12 in 10.0 mi Calm Calm - N/A   Overcast
3:17 AM 75.2 °F - 73.4 °F 94% 30.12 in 10.0 mi Calm Calm - N/A   Overcast
3:32 AM 75.2 °F - 73.4 °F 94% 30.12 in 10.0 mi Calm Calm - N/A   Overcast
3:45 AM 75.2 °F - 73.4 °F 94% 30.12 in 10.0 mi Calm Calm - N/A   Overcast
3:53 AM 75.9 °F - 73.9 °F 94% 30.11 in 10.0 mi Calm Calm - N/A   Overcast
4:06 AM 75.2 °F - 73.4 °F 94% 30.12 in 10.0 mi Calm Calm - N/A   Overcast
4:14 AM 75.2 °F - 73.4 °F 94% 30.12 in 10.0 mi Calm Calm - N/A   Overcast
4:53 AM 75.0 °F - 73.9 °F 96% 30.12 in 10.0 mi Calm Calm - N/A   Overcast
5:04 AM 75.2 °F - 73.4 °F 94% 30.13 in 10.0 mi Calm Calm - N/A   Overcast
5:53 AM 75.0 °F - 73.9 °F 96% 30.14 in 10.0 mi East 3.5 mph - N/A   Overcast
6:43 AM 73.4 °F - 71.6 °F 94% 30.16 in 10.0 mi Calm Calm - 0.04 in   Overcast
6:53 AM 73.9 °F - 72.0 °F 93% 30.16 in 10.0 mi Variable 3.5 mph - 0.04 in   Overcast
7:53 AM 75.0 °F - 73.0 °F 94% 30.17 in 10.0 mi Variable 3.5 mph - N/A   Overcast
8:53 AM 75.9 °F - 72.0 °F 87% 30.19 in 10.0 mi Variable 3.5 mph - 0.00 in   Overcast
9:22 AM 75.2 °F - 71.6 °F 89% 30.20 in 10.0 mi Variable 4.6 mph - N/A   Overcast
9:53 AM 75.0 °F - 72.0 °F 90% 30.20 in 4.0 mi Variable 3.5 mph - 0.01 in Rain Light Rain
9:58 AM 75.2 °F - 71.6 °F 89% 30.20 in 1.8 mi Variable 3.5 mph - 0.03 in Rain Heavy Rain
10:06 AM 75.2 °F - 73.4 °F 94% 30.20 in 1.8 mi Variable 4.6 mph - 0.04 in Rain Light Rain
10:09 AM 75.2 °F - 71.6 °F 89% 30.20 in 3.0 mi Variable 5.8 mph - 0.04 in Rain Light Rain
10:53 AM 75.9 °F - 73.0 °F 91% 30.21 in 10.0 mi Calm Calm - 0.06 in   Overcast
11:53 AM 82.9 °F 89.4 °F 73.9 °F 74% 30.21 in 10.0 mi Variable 6.9 mph - 0.00 in   Scattered Clouds
12:33 PM 75.2 °F - 71.6 °F 89% 30.25 in 10.0 mi South 13.8 mph 23.0 mph N/A   Overcast
12:53 PM 75.9 °F - 73.0 °F 91% 30.23 in 9.0 mi South 9.2 mph 19.6 mph 0.00 in Rain Light Rain
1:02 PM 77.0 °F - 71.6 °F 83% 30.23 in 10.0 mi Variable 5.8 mph - 0.00 in   Mostly Cloudy
1:53 PM 84.0 °F 90.2 °F 73.0 °F 69% 30.21 in 10.0 mi East 5.8 mph - 0.00 in   Partly Cloudy
2:53 PM 86.0 °F 93.8 °F 73.9 °F 67% 30.19 in 10.0 mi Variable 5.8 mph - 0.00 in   Clear
3:25 PM 80.6 °F 85.4 °F 73.4 °F 79% 30.20 in 2.5 mi ESE 4.6 mph - 0.03 in Rain Light Rain
3:33 PM 80.6 °F 86.2 °F 75.2 °F 84% 30.21 in 10.0 mi Variable 4.6 mph - 0.03 in   Partly Cloudy
3:53 PM 84.0 °F 91.2 °F 73.9 °F 72% 30.19 in 10.0 mi Variable 5.8 mph - 0.03 in   Clear
4:53 PM 87.1 °F 93.6 °F 72.0 °F 61% 30.17 in 10.0 mi Variable 5.8 mph - N/A   Clear
5:53 PM 84.9 °F 92.1 °F 73.9 °F 69% 30.18 in 7.0 mi SSE 8.1 mph - 0.00 in Rain Light Rain
6:53 PM 84.0 °F 91.2 °F 73.9 °F 72% 30.18 in 10.0 mi Variable 3.5 mph - 0.00 in   Partly Cloudy
7:53 PM 82.0 °F 86.7 °F 72.0 °F 71% 30.19 in 10.0 mi Variable 3.5 mph - N/A   Partly Cloudy
8:53 PM 80.1 °F 84.2 °F 73.0 °F 79% 30.21 in 10.0 mi Calm Calm - N/A   Clear
9:53 PM 79.0 °F - 72.0 °F 79% 30.24 in 10.0 mi Calm Calm - N/A   Clear
10:53 PM 79.0 °F - 72.0 °F 79% 30.25 in 10.0 mi Variable 3.5 mph - N/A   Clear
11:53 PM 77.0 °F - 72.0 °F 84% 30.25 in 10.0 mi Calm Calm - N/A   Clear